Zurück zum Katalog

DIWEI ZHINENG YINGJI 1

AktivWissenschaftSSO
NORAD 57582·PAYLOAD·🇨🇳 China
Dieser Satellitenname wurde noch nicht durch offizielle Quellen bestätigt.

Gestartet Aug 10, 2023 von Jiuquan Satellite Launch Center

Loading…

Nächste Überflüge (nächste 24 Stunden)

TLE

AktuellSource: Space-Track

Epoche: Sep 14, 2026, 13:19 UTC

1 57582U 23117C   26257.55506742  .00019616  00000-0  42666-3 0  9997
2 57582  97.4007 339.9720 0004763 268.0446  92.0257 15.44346020172340

Verfolge DIWEI ZHINENG YINGJI 1 in Echtzeit mit AllMySat

Download on the App Store